GFSMA_2pvu_pres_180.txt.gz
Presure
170 194 139 188 150 183 186 153 135 189 181 191 189 178 188 198 190 187 185 184 183 197 197 179 182 193 193 190 195 185 175 180 184 191 182 193 176 189 186 202 202 186 196
176 131 181 165 195 161 145 181 187 193 169 168 183 160 135 192 176 201 201 180 200 181 184 187 193 192 193 217 209 203 204 208 206 195 185 207 186 180 193 179 191 189 187
137 124 158 182 138 182 177 145 178 179 135 203 192 197 214 195 204 197 159 185 188 201 179 177 187 207 201 200 212 213 220 207 196 211 208 218 177 201 173 174 177 211 182
157 134 148 177 142 156 148 149 185 177 174 202 184 186 134 193 199 193 176 194 138 201 193 214 203 206 206 205 210 206 217 226 213 213 192 202 218 230 190 181 173 201 213
189 186 183 178 182 139 174 183 150 175 184 196 201 179 188 183 200 197 203 204 213 205 199 216 209 173 198 202 231 203 225 217 212 224 222 221 197 199 206 181 190 193 196
182 185 190 181 185 188 174 181 194 201 196 183 193 193 184 203 208 211 211 214 211 216 226 229 227 226 225 243 250 206 242 219 253 219 213 218 228 232 203 214 191 176 202
191 185 193 201 195 194 192 184 183 182 190 190 191 202 202 205 204 221 226 238 238 243 306 290 303 264 253 257 263 283 184 206 255 198 244 211 269 216 192 182 196 171 155
196 193 193 192 184 183 183 183 189 196 200 195 196 204 196 221 209 245 295 298 297 264 300 296 261 316 320 284 305 282 327 321 308 307 193 246 298 296 233 225 227 182 198
199 204 205 201 195 200 195 202 199 203 204 208 211 218 224 243 236 306 293 298 290 300 335 331 321 326 331 335 331 321 314 314 310 310 312 300 292 292 289 219 185 148 190
197 198 202 199 212 210 206 208 209 208 204 217 225 236 262 265 296 288 282 279 339 321 331 337 335 330 329 329 332 335 324 319 323 305 306 312 299 219 289 284 246 212 186
197 191 204 216 212 200 204 203 215 214 198 221 225 245 241 293 280 317 326 313 336 326 315 312 317 333 341 346 342 328 329 315 316 313 297 305 306 302 214 216 243 226 210
193 193 205 216 216 216 217 215 200 213 225 237 259 265 295 289 308 309 310 321 309 305 313 335 393 423 424 419 412 353 321 320 304 309 294 298 298 288 292 286 257 223 254
199 210 205 205 215 218 211 218 224 227 224 239 284 292 292 296 294 323 311 300 302 302 357 367 389 391 384 378 380 387 310 308 305 298 293 291 293 288 293 287 245 199 178
210 218 213 212 212 238 238 240 246 239 231 260 291 285 315 295 322 302 289 298 296 336 343 349 347 344 341 318 306 300 296 293 296 301 302 281 286 284 286 261 274 182 173
199 223 254 229 225 228 215 241 244 288 267 284 326 312 306 314 298 285 289 280 316 324 326 313 296 290 285 287 288 289 285 283 288 293 296 302 289 286 278 277 269 268 261
238 223 225 225 223 224 237 242 278 274 284 287 310 291 313 297 283 285 273 279 309 317 286 271 272 273 278 278 278 277 275 277 278 278 280 285 291 281 289 274 273 264 187
226 236 230 235 248 268 247 268 275 283 271 307 297 299 293 280 278 278 270 269 299 287 265 262 261 264 266 267 269 270 272 275 276 278 281 280 281 281 273 281 277 278 266
227 220 245 235 235 254 276 270 277 273 311 295 288 290 283 269 286 276 267 263 282 284 260 255 253 254 253 258 256 255 255 262 266 270 276 280 283 287 288 280 269 285 281
263 247 241 244 261 264 264 268 263 270 305 280 279 279 277 266 283 271 268 263 264 278 253 251 254 250 247 249 256 258 254 248 252 253 258 263 263 266 272 280 289 280 279
250 248 264 251 265 261 257 266 273 267 274 287 280 287 271 266 276 266 263 261 253 262 270 251 244 244 242 242 240 244 250 252 253 252 253 253 256 263 268 271 276 286 301
263 270 258 263 263 257 261 262 263 273 288 294 293 286 274 264 287 269 263 255 249 251 252 263 257 244 240 240 239 239 240 240 253 257 255 254 257 258 262 264 267 270 278
263 264 255 253 256 249 262 252 256 284 287 287 285 274 262 262 263 276 266 255 249 250 248 249 252 258 255 250 239 239 238 242 238 244 244 255 255 264 257 263 264 264 268
255 252 251 254 261 261 253 254 261 267 289 295 279 261 264 271 279 284 268 259 254 245 243 245 245 249 253 255 259 260 256 252 246 242 239 245 239 249 268 266 265 270 269
250 252 251 257 253 255 248 260 276 285 289 284 267 281 318 399 282 273 278 264 260 252 250 248 250 249 249 252 257 254 255 255 255 257 262 264 266 253 244 249 261 277 270
250 249 248 252 256 247 256 266 263 299 280 263 275 287 334 359 296 272 281 268 263 258 251 257 245 259 267 254 242 242 242 242 243 244 248 252 256 259 265 267 267 253 269
247 248 256 251 242 258 256 262 283 285 270 265 273 303 312 319 299 269 270 269 264 257 261 253 257 264 242 241 244 242 239 238 241 247 249 251 252 253 256 262 266 273 279

GFSMA_2pvu_pres_186.txt.gz
Presure
151 206 240 147 176 146 183 183 143 171 140 186 154 198 200 168 134 187 176 189 194 160 177 168 195 190 194 193 195 203 197 198 209 211 171 190 191 178 176 183 175 187 191
182 134 174 200 162 199 172 201 194 187 167 160 127 136 131 140 172 142 150 171 145 177 196 190 186 185 144 174 206 205 196 201 188 192 206 210 181 208 200 201 190 214 175
175 206 171 205 164 183 171 214 155 201 191 185 195 189 162 169 185 135 153 172 126 130 159 194 161 150 168 179 173 189 205 209 197 191 188 215 207 208 202 211 200 203 203
153 200 134 146 189 210 202 208 171 212 207 169 209 207 201 205 205 202 196 205 196 194 139 197 188 185 212 208 164 157 169 177 198 206 206 212 194 203 213 195 200 208 195
194 154 134 171 183 216 185 206 205 178 161 187 191 122 198 199 201 202 197 204 199 204 203 203 205 200 203 175 205 195 173 211 197 187 203 206 213 216 202 222 208 205 213
187 154 179 207 218 202 199 198 204 223 205 206 206 204 202 202 198 199 201 203 201 202 203 204 207 211 214 217 220 217 215 216 173 218 221 209 212 212 217 216 222 211 211
197 193 200 197 210 207 195 188 194 211 194 192 202 201 205 213 211 206 196 194 196 201 205 211 222 228 245 265 241 257 257 245 250 256 259 266 263 239 243 228 225 228 196
200 210 198 197 199 191 193 197 200 205 212 197 195 198 199 205 203 209 205 201 206 208 216 232 243 259 257 262 279 266 272 293 251 277 294 324 317 314 333 309 268 254 249
202 197 198 190 201 205 194 195 195 202 196 208 188 208 202 202 202 207 201 213 220 216 232 265 255 313 308 329 356 348 341 345 340 341 353 356 326 317 321 310 321 277 265
203 216 189 185 186 200 199 189 205 191 197 208 203 191 206 203 209 208 210 226 232 255 311 315 322 329 349 337 336 342 336 333 337 341 346 348 356 341 318 304 318 316 291
207 165 189 196 187 193 195 192 199 200 200 198 200 204 203 213 215 223 229 260 230 241 310 315 346 342 335 323 316 314 313 328 392 424 445 345 340 345 353 350 305 317 293
200 194 184 191 192 185 200 202 204 208 202 204 217 223 210 217 225 229 216 260 299 305 346 330 323 314 304 309 299 353 352 353 365 376 397 422 450 339 336 347 337 342 309
199 172 193 190 191 190 214 202 187 204 209 215 217 214 209 230 246 238 251 284 290 297 314 317 307 298 300 289 332 311 305 315 336 356 367 387 409 443 330 330 341 326 335
176 197 187 204 170 211 218 215 212 207 209 211 217 218 208 231 240 258 275 288 286 325 307 317 291 291 284 301 302 287 284 288 298 320 332 363 386 404 336 316 328 335 313
175 182 192 207 209 214 185 213 216 232 205 217 252 228 218 245 261 287 280 277 284 320 303 305 278 281 275 301 282 272 276 275 282 289 302 321 327 330 329 308 316 329 309
152 215 182 192 208 180 228 215 220 231 221 216 227 231 247 267 269 280 274 273 290 312 311 296 280 276 269 290 268 268 269 270 272 278 280 286 294 300 299 300 305 314 301
193 217 208 213 210 201 191 221 234 228 238 228 229 254 252 285 279 268 265 266 286 312 304 291 280 274 263 281 264 261 265 266 262 267 272 275 278 281 286 293 297 300 297
203 182 181 229 197 194 221 226 224 225 234 235 259 256 250 284 270 264 265 270 273 312 299 285 275 274 258 270 263 256 256 261 263 259 262 265 267 270 272 278 283 288 291
217 218 235 206 226 219 219 234 226 227 222 247 264 280 274 274 257 267 254 269 273 310 292 283 267 275 257 261 266 254 249 254 254 261 258 262 261 260 262 265 271 279 281
205 224 226 218 222 230 232 233 228 239 255 286 282 286 266 258 253 265 265 265 278 300 281 280 270 278 269 255 260 259 244 251 250 251 254 255 255 256 259 264 262 263 268
230 214 227 233 242 233 242 235 240 240 288 282 277 261 266 241 255 247 261 263 283 290 271 268 267 263 274 258 252 256 255 247 245 244 243 250 251 253 253 256 260 264 267
216 237 235 242 223 233 250 251 245 263 294 268 272 264 264 247 258 252 257 269 314 280 272 277 282 276 265 272 260 251 254 254 247 246 242 241 248 251 251 253 253 256 263
218 221 242 225 232 251 257 244 251 274 268 271 269 264 246 244 247 266 269 266 306 274 275 280 326 393 281 276 268 257 246 256 252 251 245 244 245 240 241 249 249 252 256
222 217 234 245 256 238 259 240 277 274 257 253 252 249 243 255 262 271 263 277 288 274 283 281 314 368 295 275 279 266 252 247 248 248 255 259 252 246 244 244 242 242 249
234 243 184 231 227 242 238 265 276 265 251 252 256 266 250 248 259 250 276 303 273 276 281 313 302 343 311 277 280 276 263 254 247 246 245 249 250 256 260 258 253 247 245
227 233 227 234 241 269 267 282 268 262 257 244 256 249 249 250 266 263 305 282 267 279 314 293 284 314 310 271 267 280 278 264 257 254 260 252 267 257 269 277 265 270 273

GFSMA_2pvu_pres_192.txt.gz
Presure
172 144 155 170 156 143 145 143 160 129 189 134 206 136 170 154 177 193 195 192 188 176 196 181 158 191 193 158 175 170 148 163 188 197 178 184 187 175 186 184 191 188 185
156 138 158 163 140 185 163 151 162 201 174 208 143 153 142 156 173 137 184 183 191 174 185 186 196 164 126 137 150 150 185 140 188 155 142 177 203 203 188 188 195 192 189
150 131 176 166 161 159 183 171 138 191 132 158 137 134 155 153 133 195 182 138 173 194 189 193 188 187 155 129 173 168 182 189 132 135 140 136 191 189 187 190 190 165 163
170 160 170 187 182 166 143 152 146 191 201 195 211 170 194 217 144 129 125 124 209 202 196 196 190 196 197 178 186 146 150 191 193 192 187 191 202 168 133 137 153 183 191
138 174 165 163 164 160 174 156 160 194 185 213 217 216 207 211 163 203 211 225 212 162 186 206 205 213 211 202 200 206 202 205 211 210 209 207 208 203 192 191 189 196 193
166 144 168 166 174 158 158 180 188 172 216 210 145 205 216 207 202 213 220 202 202 203 198 218 202 218 219 213 226 219 224 217 218 223 226 225 224 224 220 220 210 205 202
148 159 172 151 177 184 198 153 168 222 191 213 195 203 216 212 212 198 227 223 216 211 199 208 216 209 200 211 222 243 228 230 220 234 220 220 222 226 231 237 239 234 229
160 172 160 170 158 190 204 200 173 225 215 163 203 206 202 206 201 204 212 212 186 192 200 174 206 219 235 255 216 208 245 240 259 316 310 294 368 310 262 292 308 293 258
163 164 179 167 194 204 199 208 202 183 197 180 191 194 203 210 189 206 211 199 182 218 200 244 199 231 203 228 232 243 272 271 243 303 358 370 361 329 363 364 375 386 387
169 157 206 165 174 217 204 188 196 186 211 194 182 199 194 199 184 202 203 211 175 203 180 208 235 216 215 197 239 263 283 331 340 353 351 340 333 331 332 338 344 342 351
184 200 202 224 219 160 202 196 200 177 190 195 191 185 194 204 197 199 183 242 193 182 199 196 236 199 230 270 251 296 320 321 328 349 327 315 310 327 316 314 319 339 381
181 182 235 202 191 199 155 206 203 188 175 205 200 196 209 189 195 222 181 181 199 219 215 252 233 239 209 263 283 311 299 312 348 325 308 296 314 301 294 296 303 328 399
192 212 198 171 223 178 229 235 204 182 204 187 205 193 233 194 177 186 193 210 180 191 220 210 246 233 245 262 306 287 297 288 328 305 297 293 295 285 283 287 291 326 388
209 215 219 192 151 216 225 220 220 236 211 205 196 187 193 196 181 201 190 213 228 190 230 237 238 247 243 298 291 276 286 336 314 298 286 291 281 277 278 285 291 313 338
208 202 190 202 205 220 219 237 224 218 227 207 215 199 202 175 189 208 207 208 228 237 237 248 205 232 278 292 279 273 278 328 306 290 282 281 271 271 272 279 282 292 318
207 207 205 212 211 226 219 212 188 204 237 231 255 216 202 192 202 222 200 185 214 226 245 194 239 262 277 272 283 290 291 320 300 282 280 280 266 269 260 269 274 280 294
206 206 213 214 221 203 194 213 192 200 184 209 208 209 207 204 211 208 202 209 217 227 242 236 239 296 283 279 258 280 280 312 296 282 280 278 266 263 263 263 268 269 277
185 211 207 220 215 211 183 193 190 199 188 201 204 214 196 204 188 214 201 222 212 222 236 252 216 299 275 259 270 279 282 309 284 283 280 269 267 259 260 258 262 262 268
215 227 207 223 189 207 189 212 203 211 185 201 208 205 216 196 200 222 175 231 214 236 232 249 242 261 267 254 261 290 314 299 286 278 276 269 271 257 254 258 259 256 260
225 216 209 206 211 182 197 196 213 193 189 203 204 196 203 218 208 208 189 206 231 251 233 256 250 285 271 269 278 332 320 305 282 273 276 275 265 262 255 252 255 257 255
196 186 200 214 200 200 190 189 213 188 207 200 204 203 205 204 208 227 205 220 249 258 244 269 256 262 268 246 290 316 295 286 281 281 289 275 269 267 258 248 248 253 256
179 213 189 231 217 183 193 200 211 191 204 216 204 227 208 214 202 209 211 231 244 243 278 224 243 282 260 280 296 316 299 281 280 336 288 286 274 265 266 257 249 247 254
227 198 186 218 223 189 223 211 203 206 194 212 209 206 198 204 215 203 217 230 239 225 243 217 282 258 265 271 286 306 291 285 316 317 314 370 302 272 263 263 257 250 248
220 213 225 211 206 192 204 226 217 208 200 219 209 191 210 222 216 202 225 227 244 239 234 276 269 269 268 263 300 302 285 283 303 296 305 356 338 277 268 265 262 257 251
226 210 212 217 210 222 215 211 226 218 201 216 191 208 219 225 213 227 235 226 239 244 262 289 275 252 263 275 302 299 282 278 293 286 296 341 353 287 274 267 267 259 264
250 224 228 223 224 189 228 209 218 218 192 216 208 216 226 226 228 231 210 240 270 244 278 274 275 255 264 279 321 295 280 272 290 280 282 298 338 302 273 270 266 260 253

GFSMA_2pvu_pres_195.txt.gz
Presure
151 138 161 165 157 154 187 146 152 148 164 154 171 185 138 175 192 189 142 199 149 161 149 182 154 196 193 193 191 195 166 186 158 170 170 177 165 178 191 204 174 188 187
182 161 138 177 158 180 160 196 136 156 180 160 184 133 157 174 145 180 193 178 143 143 159 140 127 163 181 126 190 183 178 188 192 183 149 133 195 175 175 176 154 166 161
185 188 165 188 169 132 170 163 130 145 178 169 178 170 184 219 149 201 216 165 210 207 209 122 187 139 203 185 182 195 191 175 191 189 198 195 135 149 156 146 168 161 195
189 179 167 151 153 147 155 177 154 180 185 164 236 171 179 198 209 194 190 204 147 128 191 199 183 154 165 196 174 174 185 174 193 191 192 194 194 191 194 193 197 199 145
178 173 158 175 166 165 164 157 173 153 151 145 149 200 200 205 224 214 201 176 211 216 215 213 201 153 128 226 214 211 201 193 197 188 191 192 204 200 198 197 197 206 211
166 157 162 153 171 146 151 161 166 161 166 157 170 208 198 188 225 198 216 166 203 198 234 239 210 199 228 195 177 225 200 193 209 201 210 218 218 218 216 214 213 208 221
160 137 169 171 160 166 173 157 166 196 214 214 225 211 193 236 209 181 195 183 213 192 217 203 207 219 206 211 195 210 186 193 229 232 240 195 203 278 208 265 266 230 239
159 155 158 174 161 152 156 164 195 194 173 221 186 173 218 204 174 199 184 171 190 205 197 206 216 213 202 199 226 241 218 206 185 196 173 220 251 252 343 238 248 246 251
164 166 122 157 166 154 185 167 187 194 217 212 187 191 186 185 212 190 206 192 215 208 206 172 192 208 207 231 193 214 201 223 236 245 264 263 348 339 344 375 359 356 356
164 172 153 166 178 160 173 161 202 190 193 198 201 184 181 184 177 195 188 195 191 191 193 218 199 234 220 208 206 197 227 181 280 267 338 330 329 316 360 338 330 327 328
169 153 161 167 181 168 190 193 191 199 224 200 212 186 194 189 188 200 196 191 208 204 165 194 180 213 195 212 201 228 241 232 259 283 315 317 302 339 332 317 309 311 312
162 169 152 166 162 161 178 188 190 192 213 206 197 192 232 220 216 206 202 201 207 179 190 208 210 191 194 202 224 229 217 247 248 264 320 312 317 337 313 302 299 307 297
170 160 170 161 164 190 189 191 184 204 215 181 196 187 218 223 235 215 199 191 208 209 204 203 203 197 200 224 218 229 236 205 229 232 295 275 318 324 306 293 296 287 285
156 172 166 167 188 193 184 191 185 208 192 176 180 225 218 221 212 189 219 181 221 226 233 212 197 203 211 214 222 227 201 227 263 288 275 288 327 315 301 289 284 278 278
173 160 178 189 191 186 183 193 206 188 217 217 218 223 206 220 181 193 198 188 204 203 207 214 219 220 214 220 220 233 227 199 268 300 286 282 307 309 298 284 281 272 271
186 187 173 191 184 174 191 193 206 234 197 201 219 204 200 206 192 197 206 192 190 197 201 201 210 205 208 215 234 238 220 240 261 298 277 321 317 305 296 281 273 268 270
192 189 189 184 182 189 167 190 210 220 217 213 204 193 195 203 190 186 195 201 207 208 194 202 211 216 192 224 237 220 243 239 250 295 253 351 326 300 292 279 273 265 264
185 186 187 187 190 200 211 205 232 207 226 216 140 201 197 188 189 189 186 199 191 206 191 201 218 207 222 219 214 245 234 251 296 287 327 340 323 296 284 281 275 264 260
198 192 193 192 196 212 195 230 189 213 203 194 195 218 203 212 188 205 196 200 207 203 212 203 198 215 185 231 212 247 247 235 293 293 256 313 315 298 284 284 274 266 259
193 197 196 201 203 189 216 195 198 192 198 208 190 202 209 206 191 190 205 194 194 202 214 201 197 226 231 206 242 241 224 255 300 285 284 313 298 290 286 280 277 274 260
214 208 206 213 210 244 209 196 195 209 185 204 202 182 209 206 212 206 205 205 205 205 209 191 216 197 240 251 253 267 241 252 279 252 310 306 299 333 296 294 290 271 267
214 215 200 211 227 206 206 192 201 200 184 202 178 196 213 218 213 185 210 207 218 187 198 221 222 233 213 251 242 248 253 250 277 282 327 304 305 311 319 329 292 283 270
236 208 214 234 188 188 198 179 185 209 185 216 215 220 214 210 208 210 210 215 204 222 231 227 213 228 209 259 234 247 250 292 252 275 337 297 297 305 297 307 360 294 278
210 204 193 228 211 196 200 219 218 207 195 202 203 205 192 226 199 203 188 216 233 204 226 229 223 211 238 231 227 246 245 285 255 293 328 300 287 300 292 294 346 365 289
209 234 213 203 214 214 186 198 206 211 202 213 204 206 225 215 215 214 212 206 223 226 212 216 215 215 231 227 236 240 282 258 271 342 310 296 283 295 289 288 306 355 327
225 232 205 194 207 204 213 207 201 206 208 213 218 216 216 219 216 213 225 227 226 216 243 240 211 228 231 247 222 240 280 281 285 317 308 290 286 278 292 282 286 309 342

GFSMA_2pvu_pres_201.txt.gz
Presure
162 192 178 179 161 166 165 156 166 175 186 139 148 160 162 143 160 165 161 165 162 181 161 230 173 191 173 201 137 228 177 156 198 199 203 196 197 155 158 155 181 143 180
177 161 167 166 164 176 190 158 185 161 171 186 161 159 145 179 168 173 165 170 144 188 247 150 172 204 174 226 170 172 199 143 172 207 123 196 183 147 170 182 200 125 148
187 174 177 167 165 160 157 182 183 178 157 155 169 175 164 184 184 135 154 163 161 175 138 169 162 167 214 130 199 197 222 222 214 182 215 212 211 181 131 197 197 192 144
182 183 181 175 191 171 148 176 163 190 177 169 178 169 162 154 150 172 168 200 166 160 155 160 155 203 171 212 154 166 205 212 202 213 210 204 238 142 147 220 214 196 193
166 177 168 168 181 183 172 172 182 173 182 160 164 173 168 180 163 183 150 183 163 159 191 190 226 185 196 155 182 179 236 168 195 195 206 222 207 215 201 233 204 217 218
177 180 146 163 180 173 168 164 182 161 169 177 167 150 147 159 143 153 166 153 158 163 171 197 190 218 209 210 206 191 186 198 201 217 168 203 208 192 225 220 187 215 199
156 155 186 162 178 162 163 169 171 147 164 163 144 151 160 164 162 187 193 172 198 206 197 197 187 213 210 198 199 173 206 206 224 206 217 221 205 206 214 159 238 244 235
153 158 149 159 160 164 156 184 152 169 153 172 180 157 176 156 174 127 184 185 205 167 189 194 199 225 203 222 216 188 194 213 198 200 186 210 199 197 223 216 185 199 177
169 173 151 168 160 177 174 169 169 169 172 176 128 175 169 157 179 167 187 167 186 196 194 196 190 234 227 217 206 212 204 198 204 212 195 194 165 209 191 213 234 200 230
161 167 163 163 162 164 167 166 173 176 172 169 171 175 175 174 176 184 172 190 174 199 195 195 193 203 153 254 221 226 217 210 217 219 204 197 198 213 223 221 228 220 235
159 160 141 150 168 167 160 160 160 164 170 171 163 165 166 172 168 182 198 182 194 191 191 196 187 195 228 212 220 216 216 212 186 193 198 223 190 206 222 218 221 227 211
170 159 151 157 160 158 164 152 173 168 164 158 164 170 188 177 188 185 193 188 191 188 196 185 191 195 224 236 225 218 217 236 195 191 208 217 217 203 219 218 233 216 236
168 153 152 169 170 171 183 154 160 186 176 178 193 186 186 185 181 192 192 194 191 190 188 190 202 194 208 233 220 195 210 213 206 218 197 227 207 221 218 220 232 240 247
163 154 168 158 147 164 202 204 198 190 180 184 180 178 185 193 182 191 192 186 191 186 193 191 203 212 203 222 211 197 193 197 199 198 214 200 212 220 218 228 222 233 276
168 171 173 143 211 222 201 197 194 200 190 189 184 188 180 179 198 189 182 191 189 185 190 191 192 206 214 212 213 203 208 208 210 216 215 217 217 214 219 225 255 236 298
177 195 221 193 215 209 210 204 194 189 192 194 188 187 197 189 205 184 181 192 192 191 197 195 197 203 199 216 205 184 208 195 202 208 222 229 228 246 253 234 239 226 253
207 184 198 202 214 199 211 217 198 186 194 192 189 186 193 188 168 179 194 188 185 191 210 176 178 211 192 217 201 196 186 196 193 226 219 223 218 233 228 242 256 243 254
199 215 210 211 207 212 201 218 194 203 193 186 188 194 183 192 172 185 197 181 191 194 186 211 216 186 212 222 216 224 201 204 209 203 231 228 220 207 228 238 243 257 282
216 214 209 207 190 204 200 215 209 189 198 173 183 182 187 180 200 202 190 197 192 204 186 181 202 179 177 218 219 205 212 190 213 235 216 228 225 239 231 237 245 264 270
216 213 197 206 206 202 206 211 203 189 185 190 193 183 181 184 190 183 191 191 196 185 192 212 192 220 197 212 213 196 214 200 225 225 217 221 220 228 225 222 245 269 276
206 203 211 209 210 221 213 215 210 206 194 193 193 199 196 192 192 181 194 197 193 198 200 222 212 209 212 201 200 210 214 205 249 183 215 228 228 235 241 232 241 269 292
240 229 226 233 227 216 220 206 204 206 212 206 207 196 193 194 197 202 204 206 204 228 219 213 213 209 198 192 206 213 217 216 217 221 218 235 227 238 240 241 239 237 283
224 214 254 244 250 236 232 207 209 210 205 207 207 205 203 174 203 179 221 191 225 183 214 203 214 212 205 205 212 208 204 213 230 214 217 226 227 234 246 274 257 258 283
232 175 207 214 222 228 238 185 227 217 215 205 202 200 189 191 180 219 208 194 205 233 222 221 206 191 206 212 218 226 195 215 213 223 223 211 237 220 251 251 249 259 266
215 232 222 224 250 227 237 230 232 220 225 216 213 207 226 227 223 216 211 231 213 230 215 196 205 225 199 224 227 219 223 221 214 220 222 223 234 213 252 257 266 270 259
238 229 220 220 235 203 228 224 232 229 224 228 218 218 218 203 203 206 222 214 216 212 223 212 219 208 211 219 213 209 208 215 223 207 225 228 226 248 216 225 264 273 259

GFSMA_2pvu_pres_204.txt.gz
Presure
168 160 174 180 179 169 174 176 174 170 164 157 187 149 185 145 169 167 162 145 163 162 158 141 168 154 142 212 172 156 175 163 180 187 158 201 170 125 194 195 191 200 200
156 183 164 172 178 155 176 150 173 176 180 163 144 188 174 177 160 160 149 171 180 172 169 155 155 156 135 170 173 213 151 163 228 163 168 167 187 182 211 183 149 215 180
158 174 164 172 159 168 183 171 161 157 172 173 160 144 153 201 153 174 174 173 160 159 176 155 157 162 168 210 166 168 239 219 202 196 214 227 162 148 200 200 215 164 206
164 182 173 174 162 171 184 187 185 177 165 192 181 166 188 188 174 186 169 193 187 159 176 163 158 167 180 167 205 201 161 154 155 204 221 210 211 210 216 230 215 204 205
174 181 180 183 186 148 152 180 183 172 181 173 165 172 178 171 153 170 160 169 171 152 172 161 151 147 210 203 182 180 197 220 210 207 204 202 192 228 197 221 204 171 204
159 167 161 144 159 143 148 150 167 170 171 142 176 150 156 176 155 158 183 172 154 153 175 157 190 161 147 154 200 178 194 165 238 228 209 217 222 210 209 171 195 215 215
153 168 164 148 140 158 153 140 144 177 156 166 150 152 159 165 174 160 162 149 151 182 184 182 153 184 164 158 198 208 187 189 199 215 213 178 210 174 205 206 181 181 173
154 143 162 151 157 151 139 151 151 171 165 162 167 164 157 168 168 181 175 170 177 182 174 161 155 195 187 196 195 194 202 195 187 249 223 214 216 208 178 205 214 205 225
146 132 146 161 156 171 171 165 167 162 161 158 169 171 165 162 131 162 169 171 168 175 172 188 187 194 200 192 198 190 192 193 195 196 161 225 225 224 229 220 222 228 190
178 157 167 166 181 175 161 157 157 158 170 139 154 155 156 167 156 183 176 160 171 178 182 190 191 192 199 195 202 194 194 184 200 213 234 224 200 215 225 214 185 193 194
169 172 162 169 162 160 154 78 161 166 155 150 166 162 164 175 168 163 166 181 173 188 189 169 194 183 197 186 202 181 194 203 185 230 249 216 181 191 233 204 228 219 235
163 159 167 157 168 163 168 158 159 152 153 153 155 165 167 161 176 202 191 192 180 183 174 187 190 192 195 190 195 191 188 186 224 223 217 225 205 173 218 190 209 222 216
166 155 162 175 170 166 170 162 169 168 157 154 158 168 201 211 193 193 185 192 191 189 185 186 199 198 185 191 199 197 182 186 220 199 207 208 221 192 203 196 213 208 218
163 169 163 170 162 177 170 172 171 177 212 186 166 190 216 199 196 191 185 190 194 188 192 198 198 177 185 187 176 186 184 211 199 176 197 226 223 215 228 211 222 222 212
182 190 181 178 182 168 172 165 186 166 157 134 193 211 210 206 195 196 193 191 189 191 196 185 202 171 191 182 201 190 198 188 201 208 206 209 230 230 208 198 214 215 224
189 176 200 203 211 184 189 189 201 203 207 209 194 203 194 193 192 189 196 195 191 195 192 203 189 195 189 190 192 191 202 220 190 199 198 222 223 198 214 214 207 221 236
200 188 189 193 188 185 205 201 215 213 204 203 191 192 182 200 199 182 182 171 177 191 188 189 191 192 172 198 182 195 177 193 182 213 209 229 214 216 208 215 209 218 215
193 209 186 200 200 196 197 221 217 208 209 203 193 198 196 209 191 200 175 186 188 192 169 184 173 190 173 201 191 179 180 202 209 199 212 212 200 219 210 203 217 232 203
197 195 196 198 205 209 214 202 212 207 207 201 196 193 203 204 203 188 193 180 184 190 185 188 187 175 168 188 191 196 183 179 202 218 209 215 211 203 215 217 216 239 231
210 209 217 212 226 221 214 206 212 208 202 212 203 181 206 190 206 197 189 189 186 186 195 190 178 193 201 172 191 193 202 194 197 201 216 204 208 210 205 240 236 230 226
206 212 209 225 215 213 213 205 211 214 208 202 208 206 203 198 220 177 179 179 184 196 195 196 191 177 195 198 195 193 197 204 212 209 211 209 223 205 221 240 219 230 216
219 224 222 211 212 217 179 236 220 242 234 224 226 217 215 206 201 222 208 213 194 200 194 193 200 195 200 195 212 200 201 221 163 229 217 205 213 216 201 214 236 214 229
214 216 199 186 190 229 231 215 204 224 230 216 229 226 225 165 206 209 210 194 197 167 204 202 199 200 194 193 197 192 208 210 233 213 217 220 217 200 221 224 218 217 241
220 187 223 201 225 235 215 215 206 235 227 256 241 246 228 216 211 216 181 197 197 195 185 182 195 188 200 204 215 228 224 221 212 218 213 201 213 217 216 220 221 231 237
208 220 188 227 251 230 228 212 221 208 241 241 241 229 249 238 219 216 211 215 215 214 215 196 213 217 237 231 217 211 206 219 212 216 205 216 206 215 215 219 226 259 229
227 195 206 222 224 230 233 211 250 218 225 238 226 239 223 217 240 239 250 233 239 229 229 234 226 195 202 206 207 212 219 212 202 215 215 212 210 215 206 227 212 246 253

GFSMA_2pvu_pres_210.txt.gz
Presure
151 165 165 179 161 180 155 172 172 177 162 161 166 191 164 183 130 177 172 175 166 170 185 163 195 181 183 163 179 181 173 183 168 174 178 164 181 152 175 163 173 210 166
154 166 151 153 197 153 176 173 177 179 165 178 170 181 182 185 178 169 176 170 187 150 180 193 192 157 159 164 165 181 173 180 162 167 190 180 179 165 163 173 205 231 162
140 161 164 178 171 193 177 147 166 164 157 161 185 178 190 177 153 180 170 174 164 185 186 170 177 172 182 153 203 155 168 174 172 173 171 161 160 162 215 225 221 197 235
162 165 147 171 168 137 175 187 178 177 150 178 182 191 155 165 161 175 151 162 165 150 164 162 153 163 161 159 174 178 189 166 149 170 193 170 171 207 216 161 170 218 191
154 157 158 166 165 185 180 174 188 177 147 179 172 175 157 161 142 158 148 154 163 159 157 160 170 165 160 172 170 166 154 167 180 184 178 205 198 177 184 209 206 178 200
156 147 162 176 176 159 139 165 168 166 164 161 166 142 171 143 157 172 156 151 149 153 147 162 154 169 168 164 174 171 170 217 193 163 202 196 191 188 191 209 198 186 200
173 146 181 192 183 152 155 158 159 165 165 164 179 165 151 149 181 148 151 157 145 159 172 167 163 163 178 161 152 166 183 224 202 195 197 207 190 208 219 204 193 199 211
177 177 181 183 178 162 163 142 171 167 178 170 170 170 175 177 189 172 171 183 175 167 164 156 167 171 163 166 172 153 171 197 192 199 202 188 186 176 205 192 203 180 190
168 172 168 166 173 171 171 165 170 164 162 159 163 158 160 162 168 167 172 162 162 159 160 160 161 157 159 183 161 181 179 198 193 200 186 193 191 187 207 204 189 194 183
162 163 167 162 164 158 158 160 141 138 150 156 155 142 146 157 168 171 141 154 157 172 186 169 168 163 154 156 208 217 209 193 199 196 193 182 194 194 190 210 189 199 198
157 160 163 134 156 164 168 162 175 173 168 158 153 158 167 162 164 175 166 152 154 177 179 170 185 165 183 217 200 218 202 192 193 193 178 189 204 194 207 182 199 192 182
146 90 170 162 148 136 132 161 162 160 160 164 163 173 168 164 176 173 152 160 200 163 178 153 190 190 179 194 200 207 197 198 196 196 196 192 217 199 183 179 181 179 193
154 152 170 161 163 171 159 161 161 163 167 164 170 163 173 171 175 186 181 180 174 162 176 178 199 171 194 193 196 198 191 202 195 193 196 198 205 192 185 185 184 179 189
97 180 159 159 166 164 155 164 158 158 173 184 197 196 206 192 196 178 188 154 188 161 182 187 183 204 188 206 189 200 193 191 191 191 185 186 178 192 181 186 194 199 195
181 167 171 188 93 170 153 161 162 203 171 180 183 192 184 181 185 180 190 187 194 182 191 194 196 180 190 196 188 187 186 194 178 181 183 190 198 171 189 176 209 198 180
159 171 138 166 156 145 162 193 198 189 191 184 184 189 187 190 192 195 180 213 182 203 188 177 181 192 195 193 190 186 184 193 189 179 164 189 176 171 199 193 192 188 185
173 178 173 184 144 163 174 192 176 182 196 191 196 186 184 183 185 183 188 180 182 188 185 191 193 195 191 194 193 193 194 200 181 188 166 193 195 194 183 189 189 189 192
150 169 176 158 157 200 174 152 162 171 191 189 182 183 174 184 185 164 173 179 182 194 190 191 202 197 200 201 202 194 207 188 193 183 185 161 206 193 175 158 198 180 166
173 191 186 172 251 172 155 151 163 169 171 185 190 181 197 174 185 189 192 197 196 191 181 202 205 205 195 199 212 208 194 178 195 184 192 215 202 209 175 203 185 185 200
190 181 257 189 231 180 161 151 156 175 165 177 183 179 187 189 210 193 187 190 193 211 210 208 210 202 184 199 202 203 196 198 192 188 175 203 184 194 195 203 202 198 185
224 253 264 231 192 190 174 159 188 187 174 177 182 186 183 190 225 218 179 194 185 201 229 215 206 200 205 193 187 191 212 209 187 194 195 193 199 175 194 195 202 198 205
226 154 153 177 179 161 158 171 177 166 192 183 183 173 187 192 199 189 190 205 192 239 212 204 204 200 200 193 199 221 235 227 221 214 197 195 195 195 197 201 203 204 195
208 176 178 161 173 173 175 169 182 174 196 169 180 198 198 208 195 210 208 194 207 184 215 221 209 201 216 206 189 256 243 220 215 223 210 209 213 211 211 197 207 212 206
184 179 179 164 181 181 183 193 191 187 197 196 194 194 184 211 203 187 190 198 185 233 208 227 210 223 222 190 205 226 225 227 231 240 222 213 209 209 208 207 210 207 203
190 183 187 181 212 179 185 187 191 191 196 208 195 198 196 199 192 190 220 225 186 217 230 204 210 216 189 184 195 186 194 235 217 217 210 218 219 225 222 221 162 239 237
196 178 209 217 174 188 209 180 185 190 185 201 217 205 209 199 215 203 222 214 196 236 198 250 219 217 233 206 236 201 223 195 211 225 182 216 219 219 173 220 236 209 212